| time (UTC) | temp F | wind direction | speed MPH | gust MPH | rain 1hr in | rain 24hr in | rain mn in | humidity % | barometer mb |
| 20260506062131 | 75 | 157 | 7.0 | 15.0 | 0.00 | 0.00 | 0.00 | 84 | 1008.6 |
| 20260506061629 | 75 | 147 | 6.0 | 9.0 | 0.00 | 0.00 | 0.00 | 84 | 1008.7 |
| 20260506061132 | 76 | 167 | 5.0 | 10.0 | 0.00 | 0.00 | 0.00 | 84 | 1008.6 |
| 20260506060638 | 76 | 169 | 6.0 | 13.0 | 0.00 | 0.00 | 0.00 | 84 | 1008.6 |
| 20260506060132 | 76 | 155 | 6.0 | 13.0 | 0.00 | 0.00 | 0.00 | 84 | 1008.7 |
| 20260506051128 | 76 | 167 | 4.0 | 11.0 | 0.00 | 0.00 | 0.00 | 83 | 1008.5 |
| 20260506050649 | 76 | 151 | 6.0 | 11.0 | 0.00 | 0.00 | 0.00 | 83 | 1008.5 |
| 20260506045117 | 77 | 148 | 6.0 | 10.0 | 0.00 | 0.00 | 0.00 | 83 | 1008.5 |
| 20260506044651 | 77 | 131 | 5.0 | 10.0 | 0.00 | 0.00 | 0.00 | 83 | 1008.5 |
| 20260506044134 | 77 | 136 | 7.0 | 11.0 | 0.00 | 0.00 | 0.00 | 83 | 1008.4 |
| 20260506043645 | 77 | 140 | 7.0 | 11.0 | 0.00 | 0.00 | 0.00 | 83 | 1008.4 |
| 20260506043113 | 77 | 186 | 5.0 | 11.0 | 0.00 | 0.00 | 0.00 | 83 | 1008.5 |
| 20260506042644 | 77 | 164 | 5.0 | 12.0 | 0.00 | 0.00 | 0.00 | 82 | 1008.5 |
| 20260506042210 | 77 | 134 | 6.0 | 12.0 | 0.00 | 0.00 | 0.00 | 82 | 1008.3 |
| 20260506041642 | 77 | 140 | 6.0 | 10.0 | 0.00 | 0.00 | 0.00 | 82 | 1008.3 |
| 20260506041208 | 77 | 170 | 6.0 | 12.0 | 0.00 | 0.00 | 0.00 | 82 | 1008.3 |
| 20260506040638 | 77 | 139 | 7.0 | 12.0 | 0.00 | 0.00 | 0.00 | 82 | 1008.3 |
| 20260506040203 | 77 | 146 | 7.0 | 11.0 | 0.00 | 0.00 | 0.00 | 82 | 1008.1 |
| 20260506035628 | 77 | 151 | 4.0 | 9.0 | 0.00 | 0.00 | 0.00 | 82 | 1008.1 |
| 20260506035159 | 77 | 128 | 3.0 | 6.0 | 0.00 | 0.00 | 0.00 | 81 | 1008.1 |
| 20260506034628 | 77 | 125 | 3.0 | 6.0 | 0.00 | 0.00 | 0.00 | 81 | 1008.0 |
| 20260506034158 | 77 | 126 | 3.0 | 6.0 | 0.00 | 0.00 | 0.00 | 81 | 1007.9 |
| 20260506033624 | 77 | 159 | 3.0 | 6.0 | 0.00 | 0.00 | 0.00 | 81 | 1007.8 |
| 20260506033158 | 77 | 145 | 3.0 | 6.0 | 0.00 | 0.00 | 0.00 | 81 | 1007.9 |
| 20260506032623 | 77 | 140 | 4.0 | 6.0 | 0.00 | 0.00 | 0.00 | 80 | 1007.8 |
| 20260506032135 | 77 | 129 | 3.0 | 8.0 | 0.00 | 0.00 | 0.00 | 80 | 1007.7 |
| 20260506031701 | 77 | 115 | 3.0 | 8.0 | 0.00 | 0.00 | 0.00 | 80 | 1007.5 |
| 20260506031134 | 77 | 159 | 4.0 | 7.0 | 0.00 | 0.00 | 0.00 | 79 | 1007.5 |
| 20260506030618 | 78 | 158 | 4.0 | 7.0 | 0.00 | 0.00 | 0.00 | 79 | 1007.4 |
| 20260506030143 | 78 | 120 | 4.0 | 6.0 | 0.00 | 0.00 | 0.00 | 78 | 1007.3 |
| 20260506025621 | 78 | 142 | 4.0 | 7.0 | 0.00 | 0.00 | 0.00 | 78 | 1007.1 |
| 20260506025145 | 78 | 134 | 4.0 | 7.0 | 0.00 | 0.00 | 0.00 | 78 | 1007.0 |
| 20260506024658 | 78 | 150 | 4.0 | 6.0 | 0.00 | 0.00 | 0.00 | 77 | 1007.0 |
| 20260506024123 | 78 | 154 | 2.0 | 5.0 | 0.00 | 0.00 | 0.00 | 77 | 1007.0 |
| 20260506023656 | 78 | 142 | 3.0 | 5.0 | 0.00 | 0.00 | 0.00 | 76 | 1006.9 |
| 20260506023121 | 78 | 128 | 1.0 | 4.0 | 0.00 | 0.00 | 0.00 | 76 | 1007.0 |
| 20260506022655 | 79 | 147 | 2.0 | 4.0 | 0.00 | 0.00 | 0.00 | 76 | 1006.9 |
| 20260506022221 | 79 | 144 | 1.0 | 5.0 | 0.00 | 0.00 | 0.00 | 75 | 1006.8 |
| 20260506021630 | 79 | 154 | 2.0 | 5.0 | 0.00 | 0.00 | 0.00 | 75 | 1006.7 |
| 20260506021157 | 79 | 129 | 2.0 | 5.0 | 0.00 | 0.00 | 0.00 | 75 | 1006.6 |
| 20260506020622 | 79 | 140 | 1.0 | 4.0 | 0.00 | 0.00 | 0.00 | 74 | 1006.5 |
| 20260506020155 | 79 | 140 | 2.0 | 4.0 | 0.00 | 0.00 | 0.00 | 74 | 1006.5 |
| 20260506015622 | 80 | 140 | 1.0 | 4.0 | 0.00 | 0.00 | 0.00 | 73 | 1006.4 |
| 20260506015156 | 80 | 140 | 2.0 | 3.0 | 0.00 | 0.00 | 0.00 | 73 | 1006.3 |
| 20260506014616 | 80 | 132 | 1.0 | 4.0 | 0.00 | 0.00 | 0.00 | 72 | 1006.2 |
| 20260506014150 | 80 | 128 | 2.0 | 4.0 | 0.00 | 0.00 | 0.00 | 72 | 1006.0 |
| 20260506013654 | 81 | 130 | 2.0 | 5.0 | 0.00 | 0.00 | 0.00 | 71 | 1006.0 |
| 20260506013124 | 81 | 139 | 2.0 | 5.0 | 0.00 | 0.00 | 0.00 | 70 | 1005.9 |
| 20260506012649 | 81 | 142 | 2.0 | 3.0 | 0.00 | 0.00 | 0.00 | 70 | 1005.9 |
| 20260506012222 | 81 | 137 | 2.0 | 5.0 | 0.00 | 0.00 | 0.00 | 69 | 1005.9 |
| 20260506011729 | 82 | 137 | 2.0 | 5.0 | 0.00 | 0.00 | 0.00 | 69 | 1005.9 |
| 20260506011139 | 82 | 134 | 2.0 | 5.0 | 0.00 | 0.00 | 0.00 | 68 | 1005.8 |
| 20260506010704 | 82 | 132 | 2.0 | 4.0 | 0.00 | 0.00 | 0.00 | 67 | 1005.8 |
| 20260506010140 | 83 | 127 | 2.0 | 4.0 | 0.00 | 0.00 | 0.00 | 66 | 1005.8 |
| 20260506005707 | 83 | 141 | 1.0 | 3.0 | 0.00 | 0.00 | 0.00 | 66 | 1005.8 |
| 20260506005133 | 83 | 142 | 1.0 | 2.0 | 0.00 | 0.00 | 0.00 | 65 | 1005.9 |
| 20260506004706 | 84 | 141 | 1.0 | 4.0 | 0.00 | 0.00 | 0.00 | 65 | 1005.8 |
| 20260506004130 | 84 | 142 | 1.0 | 4.0 | 0.00 | 0.00 | 0.00 | 64 | 1005.8 |
| 20260506003705 | 84 | 141 | 2.0 | 2.0 | 0.00 | 0.00 | 0.00 | 64 | 1005.7 |
| 20260506003130 | 84 | 142 | 1.0 | 4.0 | 0.00 | 0.00 | 0.00 | 63 | 1005.8 |
| 20260506002704 | 84 | 142 | 1.0 | 4.0 | 0.00 | 0.00 | 0.00 | 62 | 1005.8 |
| 20260506002134 | 84 | 205 | 1.0 | 4.0 | 0.00 | 0.00 | 0.00 | 62 | 1005.9 |
| 20260506001139 | 84 | 176 | 2.0 | 6.0 | 0.00 | 0.00 | 0.00 | 62 | 1005.8 |
| 20260506000703 | 84 | 197 | 3.0 | 5.0 | 0.00 | 0.00 | 0.00 | 62 | 1005.7 |
| 20260506000136 | 84 | 205 | 1.0 | 6.0 | 0.00 | 0.00 | 0.00 | 62 | 1005.7 |
| 20260505235701 | 84 | 211 | 4.0 | 6.0 | 0.00 | 0.00 | 0.00 | 61 | 1005.6 |
| 20260505235212 | 84 | 212 | 3.0 | 6.0 | 0.00 | 0.00 | 0.00 | 61 | 1005.7 |
| 20260505234648 | 84 | 237 | 4.0 | 8.0 | 0.00 | 0.00 | 0.00 | 61 | 1005.8 |
| 20260505234219 | 84 | 213 | 4.0 | 8.0 | 0.00 | 0.00 | 0.00 | 61 | 1005.7 |
| 20260505233619 | 84 | 201 | 3.0 | 6.0 | 0.00 | 0.00 | 0.00 | 62 | 1005.7 |
| 20260505233154 | 84 | 224 | 3.0 | 7.0 | 0.00 | 0.00 | 0.00 | 62 | 1005.7 |
| 20260505232614 | 84 | 221 | 5.0 | 7.0 | 0.00 | 0.00 | 0.00 | 61 | 1005.6 |
| 20260505232139 | 84 | 149 | 3.0 | 7.0 | 0.00 | 0.00 | 0.00 | 61 | 1005.6 |
| 20260505231615 | 84 | 189 | 2.0 | 9.0 | 0.00 | 0.00 | 0.00 | 61 | 1005.6 |
| 20260505231135 | 84 | 221 | 6.0 | 9.0 | 0.00 | 0.00 | 0.00 | 60 | 1005.6 |
| 20260505230706 | 84 | 168 | 3.0 | 11.0 | 0.00 | 0.00 | 0.00 | 60 | 1005.6 |
| 20260505230128 | 85 | 209 | 4.0 | 10.0 | 0.00 | 0.00 | 0.00 | 61 | 1005.7 |
| 20260505225630 | 85 | 166 | 3.0 | 8.0 | 0.00 | 0.00 | 0.00 | 61 | 1005.7 |
| 20260505225201 | 84 | 139 | 4.0 | 8.0 | 0.00 | 0.00 | 0.00 | 61 | 1005.5 |
| 20260505224703 | 85 | 194 | 5.0 | 10.0 | 0.00 | 0.00 | 0.00 | 60 | 1005.5 |
| 20260505224135 | 85 | 235 | 4.0 | 10.0 | 0.00 | 0.00 | 0.00 | 61 | 1005.4 |
| 20260505223701 | 85 | 179 | 5.0 | 10.0 | 0.00 | 0.00 | 0.00 | 60 | 1005.4 |
| 20260505223132 | 85 | 167 | 5.0 | 10.0 | 0.00 | 0.00 | 0.00 | 60 | 1005.4 |
| 20260505222656 | 85 | 183 | 5.0 | 12.0 | 0.00 | 0.00 | 0.00 | 61 | 1005.4 |
| 20260505222142 | 84 | 219 | 5.0 | 12.0 | 0.00 | 0.00 | 0.00 | 60 | 1005.6 |
| 20260505221706 | 84 | 175 | 6.0 | 11.0 | 0.00 | 0.00 | 0.00 | 59 | 1005.6 |
| 20260505221203 | 85 | 188 | 6.0 | 11.0 | 0.00 | 0.00 | 0.00 | 59 | 1005.6 |
| 20260505220116 | 85 | 148 | 5.0 | 13.0 | 0.00 | 0.00 | 0.00 | 59 | 1005.5 |
| 20260505215640 | 85 | 182 | 6.0 | 13.0 | 0.00 | 0.00 | 0.00 | 59 | 1005.6 |
| 20260505215205 | 85 | 216 | 3.0 | 13.0 | 0.00 | 0.00 | 0.00 | 60 | 1005.5 |
| 20260505214704 | 85 | 184 | 6.0 | 13.0 | 0.00 | 0.00 | 0.00 | 60 | 1005.7 |
| 20260505214115 | 85 | 208 | 5.0 | 11.0 | 0.00 | 0.00 | 0.00 | 61 | 1005.7 |
| 20260505213628 | 85 | 150 | 6.0 | 12.0 | 0.00 | 0.00 | 0.00 | 60 | 1005.7 |
| 20260505212706 | 84 | 198 | 6.0 | 12.0 | 0.00 | 0.00 | 0.00 | 61 | 1006.2 |
| 20260505211615 | 83 | 173 | 5.0 | 13.0 | 0.00 | 0.00 | 0.00 | 62 | 1006.2 |
| 20260505210625 | 83 | 150 | 5.0 | 11.0 | 0.00 | 0.00 | 0.00 | 62 | 1006.2 |
| 20260505205659 | 83 | 180 | 6.0 | 11.0 | 0.00 | 0.00 | 0.00 | 62 | 1006.6 |
| 20260505204627 | 83 | 183 | 7.0 | 13.0 | 0.00 | 0.00 | 0.00 | 61 | 1006.6 |
| 20260505204119 | 83 | 169 | 7.0 | 11.0 | 0.00 | 0.00 | 0.00 | 62 | 1006.7 |
| 20260505203225 | 83 | 186 | 8.0 | 14.0 | 0.00 | 0.00 | 0.00 | 62 | 1006.9 |
| 20260505202157 | 83 | 201 | 7.0 | 13.0 | 0.00 | 0.00 | 0.00 | 62 | 1007.0 |
| 20260505201628 | 83 | 217 | 5.0 | 10.0 | 0.00 | 0.00 | 0.00 | 63 | 1007.1 |
| 20260505201158 | 83 | 194 | 5.0 | 8.0 | 0.00 | 0.00 | 0.00 | 64 | 1007.1 |
| 20260505200623 | 82 | 218 | 1.0 | 12.0 | 0.00 | 0.00 | 0.00 | 64 | 1007.2 |
| 20260505200136 | 82 | 192 | 7.0 | 14.0 | 0.00 | 0.00 | 0.00 | 64 | 1007.4 |
| 20260505195702 | 82 | 169 | 7.0 | 14.0 | 0.00 | 0.00 | 0.00 | 64 | 1007.4 |
| 20260505195135 | 82 | 207 | 6.0 | 10.0 | 0.00 | 0.00 | 0.00 | 64 | 1007.4 |
| 20260505194700 | 82 | 165 | 5.0 | 12.0 | 0.00 | 0.00 | 0.00 | 65 | 1007.5 |
| 20260505194126 | 82 | 240 | 7.0 | 12.0 | 0.00 | 0.00 | 0.00 | 64 | 1007.4 |
| 20260505193657 | 81 | 222 | 8.0 | 13.0 | 0.00 | 0.00 | 0.00 | 66 | 1007.5 |
| 20260505193202 | 81 | 171 | 6.0 | 14.0 | 0.00 | 0.00 | 0.00 | 65 | 1007.5 |
| 20260505192638 | 81 | 172 | 8.0 | 14.0 | 0.00 | 0.00 | 0.00 | 67 | 1007.7 |
| 20260505191644 | 80 | 191 | 6.0 | 10.0 | 0.00 | 0.00 | 0.00 | 67 | 1007.7 |
| 20260505191149 | 80 | 236 | 3.0 | 11.0 | 0.00 | 0.00 | 0.00 | 68 | 1007.9 |
| 20260505190622 | 80 | 229 | 6.0 | 11.0 | 0.00 | 0.00 | 0.00 | 68 | 1007.9 |
| 20260505190147 | 80 | 210 | 6.0 | 10.0 | 0.00 | 0.00 | 0.00 | 68 | 1007.9 |
| 20260505185620 | 80 | 160 | 7.0 | 11.0 | 0.00 | 0.00 | 0.00 | 68 | 1007.9 |
| 20260505185147 | 80 | 167 | 6.0 | 11.0 | 0.00 | 0.00 | 0.00 | 68 | 1008.0 |
| 20260505184658 | 80 | 178 | 4.0 | 11.0 | 0.00 | 0.00 | 0.00 | 70 | 1008.2 |
| 20260505184123 | 79 | 215 | 6.0 | 11.0 | 0.00 | 0.00 | 0.00 | 72 | 1008.2 |
| 20260505183656 | 79 | 221 | 4.0 | 9.0 | 0.00 | 0.00 | 0.00 | 70 | 1008.3 |
| 20260505183126 | 79 | 227 | 5.0 | 9.0 | 0.00 | 0.00 | 0.00 | 70 | 1008.4 |
| 20260505182658 | 79 | 250 | 6.0 | 10.0 | 0.00 | 0.00 | 0.00 | 71 | 1008.4 |
| 20260505182123 | 79 | 225 | 6.0 | 10.0 | 0.00 | 0.00 | 0.00 | 71 | 1008.5 |
| 20260505181645 | 78 | 174 | 6.0 | 10.0 | 0.00 | 0.00 | 0.00 | 73 | 1008.6 |
| 20260505181157 | 78 | 186 | 5.0 | 10.0 | 0.00 | 0.00 | 0.00 | 73 | 1008.6 |
| 20260505180622 | 78 | 207 | 5.0 | 11.0 | 0.00 | 0.00 | 0.00 | 72 | 1008.6 |
| 20260505180155 | 78 | 220 | 6.0 | 11.0 | 0.00 | 0.00 | 0.00 | 73 | 1008.6 |
| 20260505175621 | 77 | 229 | 5.0 | 12.0 | 0.00 | 0.00 | 0.00 | 74 | 1008.7 |
| 20260505175154 | 77 | 261 | 5.0 | 12.0 | 0.00 | 0.00 | 0.00 | 75 | 1008.8 |
| 20260505174624 | 77 | 240 | 7.0 | 10.0 | 0.00 | 0.00 | 0.00 | 74 | 1008.9 |
| 20260505174136 | 77 | 258 | 5.0 | 11.0 | 0.00 | 0.00 | 0.00 | 75 | 1009.0 |
| 20260505173659 | 76 | 212 | 6.0 | 13.0 | 0.00 | 0.00 | 0.00 | 75 | 1008.8 |
| 20260505173151 | 76 | 223 | 7.0 | 13.0 | 0.00 | 0.00 | 0.00 | 76 | 1008.9 |
| 20260505172718 | 76 | 220 | 5.0 | 11.0 | 0.00 | 0.00 | 0.00 | 76 | 1008.9 |
| 20260505172121 | 76 | 216 | 5.0 | 10.0 | 0.00 | 0.00 | 0.00 | 77 | 1008.9 |
| 20260505171656 | 76 | 250 | 7.0 | 12.0 | 0.00 | 0.00 | 0.00 | 77 | 1009.0 |
| 20260505171120 | 76 | 189 | 7.0 | 12.0 | 0.00 | 0.00 | 0.00 | 78 | 1009.0 |
| 20260505170654 | 75 | 225 | 6.0 | 14.0 | 0.00 | 0.00 | 0.00 | 78 | 1008.9 |
| 20260505170154 | 75 | 201 | 8.0 | 14.0 | 0.00 | 0.00 | 0.00 | 79 | 1008.9 |
| 20260505165728 | 75 | 222 | 7.0 | 14.0 | 0.00 | 0.00 | 0.00 | 80 | 1009.0 |
| 20260505165132 | 74 | 216 | 8.0 | 14.0 | 0.00 | 0.00 | 0.00 | 81 | 1009.0 |
| 20260505164144 | 74 | 226 | 10.0 | 14.0 | 0.00 | 0.00 | 0.00 | 82 | 1009.1 |
| 20260505163648 | 73 | 237 | 9.0 | 15.0 | 0.00 | 0.00 | 0.00 | 83 | 1009.0 |
| 20260505163121 | 73 | 215 | 9.0 | 15.0 | 0.00 | 0.00 | 0.00 | 84 | 1009.0 |
| 20260505162645 | 73 | 207 | 8.0 | 16.0 | 0.00 | 0.00 | 0.00 | 84 | 1008.9 |
| 20260505162118 | 73 | 171 | 10.0 | 16.0 | 0.00 | 0.00 | 0.00 | 85 | 1009.0 |
| 20260505161644 | 73 | 216 | 8.0 | 16.0 | 0.00 | 0.00 | 0.00 | 85 | 1009.0 |
| 20260505161156 | 72 | 211 | 9.0 | 14.0 | 0.00 | 0.00 | 0.00 | 86 | 1009.0 |
| 20260505160722 | 72 | 252 | 9.0 | 14.0 | 0.00 | 0.00 | 0.00 | 86 | 1008.9 |
| 20260505160134 | 72 | 238 | 9.0 | 14.0 | 0.00 | 0.00 | 0.00 | 87 | 1008.9 |
| 20260505153143 | 71 | 217 | 8.0 | 13.0 | 0.00 | 0.00 | 0.00 | 89 | 1009.0 |
| 20260505152654 | 71 | 232 | 6.0 | 12.0 | 0.00 | 0.00 | 0.00 | 89 | 1009.0 |
| 20260505152117 | 71 | 213 | 6.0 | 9.0 | 0.00 | 0.00 | 0.00 | 90 | 1009.0 |
| 20260505151652 | 71 | 213 | 5.0 | 9.0 | 0.00 | 0.00 | 0.00 | 89 | 1009.0 |
| 20260505151116 | 70 | 234 | 6.0 | 12.0 | 0.00 | 0.00 | 0.00 | 90 | 1009.0 |
| 20260505150650 | 70 | 213 | 7.0 | 12.0 | 0.00 | 0.00 | 0.00 | 90 | 1009.0 |
| 20260505150155 | 70 | 210 | 4.0 | 10.0 | 0.00 | 0.00 | 0.00 | 90 | 1008.9 |
| 20260505140143 | 69 | 217 | 6.0 | 10.0 | 0.00 | 0.00 | 0.00 | 89 | 1009.0 |
| 20260505130157 | 69 | 188 | 6.0 | 18.0 | 0.00 | 0.00 | 0.00 | 87 | 1008.3 |
| 20260505124632 | 69 | 234 | 6.0 | 11.0 | 0.00 | 0.00 | 0.00 | 87 | 1008.3 |
| 20260505124157 | 70 | 184 | 7.0 | 11.0 | 0.00 | 0.00 | 0.00 | 87 | 1008.3 |
| 20260505123623 | 70 | 242 | 7.0 | 11.0 | 0.00 | 0.00 | 0.00 | 87 | 1008.3 |
| 20260505123156 | 70 | 221 | 6.0 | 11.0 | 0.00 | 0.00 | 0.00 | 87 | 1008.2 |
| 20260505122622 | 69 | 174 | 5.0 | 11.0 | 0.00 | 0.00 | 0.00 | 87 | 1008.2 |
| 20260505122154 | 69 | 178 | 7.0 | 10.0 | 0.00 | 0.00 | 0.00 | 87 | 1008.1 |
| 20260505121721 | 69 | 211 | 6.0 | 12.0 | 0.00 | 0.00 | 0.00 | 87 | 1008.0 |
| 20260505121132 | 69 | 225 | 6.0 | 12.0 | 0.00 | 0.00 | 0.00 | 87 | 1007.9 |
| 20260505120657 | 69 | 209 | 6.0 | 12.0 | 0.00 | 0.00 | 0.00 | 87 | 1007.8 |
| 20260505120113 | 69 | 198 | 6.0 | 13.0 | 0.00 | 0.00 | 0.00 | 87 | 1007.7 |
| 20260505115638 | 69 | 182 | 7.0 | 13.0 | 0.00 | 0.00 | 0.00 | 87 | 1007.8 |
| 20260505115150 | 69 | 238 | 6.0 | 11.0 | 0.00 | 0.00 | 0.00 | 87 | 1007.7 |
| 20260505114717 | 69 | 224 | 6.0 | 10.0 | 0.00 | 0.00 | 0.00 | 87 | 1007.7 |
| 20260505114121 | 69 | 200 | 6.0 | 12.0 | 0.00 | 0.00 | 0.00 | 87 | 1007.7 |
| 20260505113654 | 69 | 217 | 7.0 | 13.0 | 0.00 | 0.00 | 0.00 | 87 | 1007.8 |
| 20260505113117 | 69 | 215 | 8.0 | 13.0 | 0.00 | 0.00 | 0.00 | 87 | 1007.7 |
| 20260505112650 | 69 | 214 | 7.0 | 11.0 | 0.00 | 0.00 | 0.00 | 87 | 1007.6 |
| 20260505112216 | 69 | 190 | 5.0 | 12.0 | 0.00 | 0.00 | 0.00 | 87 | 1007.7 |
| 20260505111627 | 69 | 222 | 6.0 | 12.0 | 0.00 | 0.00 | 0.00 | 87 | 1007.6 |
| 20260505111154 | 69 | 225 | 5.0 | 12.0 | 0.00 | 0.00 | 0.00 | 87 | 1007.6 |
| 20260505110703 | 69 | 190 | 9.0 | 12.0 | 0.00 | 0.00 | 0.00 | 87 | 1007.6 |
| 20260505110132 | 69 | 191 | 7.0 | 11.0 | 0.00 | 0.00 | 0.00 | 87 | 1007.6 |
| 20260505102123 | 70 | 209 | 8.0 | 13.0 | 0.00 | 0.00 | 0.00 | 86 | 1007.7 |
| 20260505101656 | 70 | 194 | 6.0 | 12.0 | 0.00 | 0.00 | 0.00 | 86 | 1007.8 |
| 20260505101124 | 70 | 198 | 5.0 | 12.0 | 0.00 | 0.00 | 0.00 | 86 | 1007.8 |
| 20260505100657 | 70 | 212 | 7.0 | 13.0 | 0.00 | 0.00 | 0.00 | 86 | 1007.8 |
| 20260505100120 | 70 | 230 | 8.0 | 13.0 | 0.00 | 0.00 | 0.00 | 86 | 1007.9 |
| 20260505095653 | 70 | 182 | 7.0 | 12.0 | 0.00 | 0.00 | 0.00 | 86 | 1008.0 |
| 20260505095117 | 70 | 207 | 6.0 | 13.0 | 0.00 | 0.00 | 0.00 | 86 | 1007.8 |
| 20260505094642 | 70 | 242 | 8.0 | 13.0 | 0.00 | 0.00 | 0.00 | 86 | 1008.0 |
| 20260505094115 | 70 | 192 | 6.0 | 15.0 | 0.00 | 0.00 | 0.00 | 86 | 1007.9 |
| 20260505093642 | 70 | 207 | 9.0 | 15.0 | 0.00 | 0.00 | 0.00 | 86 | 1007.9 |
| 20260505093115 | 70 | 167 | 6.0 | 13.0 | 0.00 | 0.00 | 0.00 | 85 | 1008.0 |
| 20260505092639 | 70 | 194 | 8.0 | 14.0 | 0.00 | 0.00 | 0.00 | 85 | 1008.0 |
| 20260505092116 | 70 | 180 | 7.0 | 14.0 | 0.00 | 0.00 | 0.00 | 85 | 1008.0 |
| 20260505091642 | 70 | 201 | 8.0 | 12.0 | 0.00 | 0.00 | 0.00 | 85 | 1008.1 |
| 20260505091155 | 70 | 224 | 7.0 | 14.0 | 0.00 | 0.00 | 0.00 | 85 | 1007.9 |
| 20260505090618 | 70 | 214 | 9.0 | 14.0 | 0.00 | 0.00 | 0.00 | 85 | 1008.0 |
| 20260505090144 | 70 | 210 | 7.0 | 10.0 | 0.00 | 0.00 | 0.00 | 85 | 1008.1 |
| 20260505085617 | 70 | 171 | 7.0 | 14.0 | 0.00 | 0.00 | 0.00 | 85 | 1008.2 |
| 20260505085143 | 70 | 217 | 8.0 | 14.0 | 0.00 | 0.00 | 0.00 | 84 | 1008.1 |
| 20260505084615 | 70 | 225 | 6.0 | 15.0 | 0.00 | 0.00 | 0.00 | 84 | 1008.2 |
| 20260505084141 | 70 | 169 | 8.0 | 15.0 | 0.00 | 0.00 | 0.00 | 84 | 1008.1 |
| 20260505083618 | 70 | 174 | 7.0 | 14.0 | 0.00 | 0.00 | 0.00 | 84 | 1008.2 |
| 20260505083145 | 70 | 198 | 8.0 | 14.0 | 0.00 | 0.00 | 0.00 | 84 | 1008.3 |
| 20260505082657 | 70 | 176 | 8.0 | 13.0 | 0.00 | 0.00 | 0.00 | 84 | 1008.3 |
| 20260505082223 | 70 | 211 | 6.0 | 15.0 | 0.00 | 0.00 | 0.00 | 84 | 1008.3 |
| 20260505081627 | 70 | 184 | 9.0 | 15.0 | 0.00 | 0.00 | 0.00 | 84 | 1008.2 |
| 20260505081201 | 70 | 197 | 7.0 | 14.0 | 0.00 | 0.00 | 0.00 | 84 | 1008.5 |
| 20260505080627 | 70 | 221 | 7.0 | 12.0 | 0.00 | 0.00 | 0.00 | 84 | 1008.5 |
| 20260505080200 | 70 | 174 | 6.0 | 13.0 | 0.00 | 0.00 | 0.00 | 84 | 1008.5 |
| 20260505075706 | 70 | 189 | 4.0 | 13.0 | 0.00 | 0.00 | 0.00 | 84 | 1008.6 |
| 20260505075139 | 70 | 201 | 8.0 | 12.0 | 0.00 | 0.00 | 0.00 | 84 | 1008.7 |
| 20260505074703 | 70 | 213 | 4.0 | 7.0 | 0.00 | 0.00 | 0.00 | 83 | 1008.6 |
| 20260505074139 | 70 | 186 | 4.0 | 11.0 | 0.00 | 0.00 | 0.00 | 83 | 1008.6 |
| 20260505073706 | 70 | 196 | 4.0 | 14.0 | 0.00 | 0.00 | 0.00 | 83 | 1008.7 |
| 20260505073129 | 70 | 196 | 6.0 | 11.0 | 0.00 | 0.00 | 0.00 | 83 | 1008.7 |
| 20260505072704 | 70 | 188 | 7.0 | 11.0 | 0.00 | 0.00 | 0.00 | 83 | 1008.9 |
| 20260505072128 | 71 | 221 | 6.0 | 12.0 | 0.00 | 0.00 | 0.00 | 83 | 1009.0 |
| 20260505071640 | 71 | 167 | 4.0 | 12.0 | 0.00 | 0.00 | 0.00 | 82 | 1009.0 |
| 20260505071147 | 71 | 192 | 5.0 | 12.0 | 0.00 | 0.00 | 0.00 | 82 | 1009.2 |
| 20260505070652 | 71 | 202 | 6.0 | 12.0 | 0.00 | 0.00 | 0.00 | 82 | 1009.2 |
| 20260505070125 | 71 | 221 | 7.0 | 15.0 | 0.00 | 0.00 | 0.00 | 82 | 1009.4 |
| 20260505065623 | 71 | 174 | 7.0 | 15.0 | 0.00 | 0.00 | 0.00 | 82 | 1009.4 |
| 20260505065128 | 71 | 198 | 4.0 | 14.0 | 0.00 | 0.00 | 0.00 | 82 | 1009.5 |
| 20260505064626 | 71 | 205 | 7.0 | 14.0 | 0.00 | 0.00 | 0.00 | 82 | 1009.6 |